Location: Greene
(44.1583°N, 70.1456°W)
Time: 23:16:06
(UTC-05:00)

Tiangong 2 - Visible Passes

Search period start: 21 January 2018 00:00
Search period end: 31 January 2018 00:00
Orbit: 384 x 390 km, 42.8° (Epoch: 21 January)

Date Brightness Start Highest point End Pass type
(mag) Time Alt. Az. Time Alt. Az. Time Alt. Az.
21 Jan 1.7 05:29:09 36° SW 05:30:01 49° SSE 05:33:08 10° E visible
22 Jan 4.0 04:33:17 18° ESE 04:33:17 18° ESE 04:34:22 10° E visible
22 Jan 1.3 06:05:33 16° W 06:08:00 69° S 06:11:11 10° E visible
23 Jan 1.5 05:09:36 58° SE 05:09:36 58° SE 05:12:28 10° E visible
24 Jan 4.7 04:13:37 11° E 04:13:37 11° E 04:13:44 10° E visible
24 Jan 1.2 05:45:53 29° W 05:47:18 68° S 05:50:29 10° E visible
25 Jan 2.9 04:49:52 32° ESE 04:49:52 32° ESE 04:51:46 10° E visible
25 Jan 1.9 06:22:11 10° W 06:25:15 44° SSW 06:28:18 10° ESE visible
26 Jan 1.3 05:26:06 50° SW 05:26:34 57° S 05:29:42 10° ESE visible
27 Jan 4.0 04:30:04 18° ESE 04:30:04 18° ESE 04:31:00 10° ESE visible
27 Jan 2.4 06:02:20 15° WSW 06:04:25 30° SSW 06:07:15 10° SE visible
28 Jan 2.2 05:06:19 38° SSE 05:06:19 38° SSE 05:08:47 10° ESE visible
29 Jan 2.9 05:42:37 18° SW 05:43:29 20° SSW 05:45:54 10° SSE visible
30 Jan 3.6 04:46:41 17° SSE 04:46:41 17° SSE 04:47:41 10° SE visible
